2024-153F

Last updated on Sun Sep 29 2024 00:02:03 GMT+0000 (Coordinated Universal Time)

1 60750U 24153F 24272.60891759 .00025081 00000+0 14890-2 0 9994 2 60750 97.6148 29.9736 0016762 185.7670 174.3369 15.11188045 4592
UTC large
Height (km)
Speed (km/s)
/
Latitude / Longitude
Inclination (degrees)
Orbital Period (minutes)
Azimuth
Elevation
Range (km)
Doppler Factor

Next 0 passes for location: London (51.5072 / 0.1276)

Sorry there are no passes over London.